Lid_Strength_Index
5 4 3 4 4 3 3 3 2 2 2 2 1 1 1 1 0 0 1 0 0 0 1 1 -0 -0 -0 -1 -1 -1 -1 -0 -0
5 5 4 4 3 3 3 3 2 2 2 2 1 1 1 1 0 0 1 0 -0 0 0 0 0 -0 -0 -0 -1 -1 -1 0 0
5 4 4 3 3 3 2 2 2 1 1 2 1 1 1 1 1 0 0 -0 0 0 -0 0 0 -0 -0 -0 -0 -0 -1 0 -0
6 4 4 3 3 2 2 2 2 2 2 2 1 1 1 1 1 1 0 0 0 -0 1 1 0 0 0 -0 -0 -0 -0 0 -0
4 4 3 3 3 2 2 2 2 2 2 2 1 1 1 1 1 1 1 1 0 -0 1 1 2 -0 0 -0 -0 -0 0 1 0
4 4 3 3 3 3 2 2 2 2 2 2 1 1 1 1 1 1 1 1 0 0 0 0 0 -0 0 0 0 0 0 0 1
4 4 4 3 3 2 2 1 2 2 2 2 1 1 1 1 1 1 1 1 0 0 -0 0 0 0 0 0 0 0 0 0 0
4 4 4 4 3 3 2 2 2 2 1 1 1 2 1 1 1 0 1 0 0 0 0 0 0 0 0 0 0 0 0 0 0
5 4 4 3 3 3 3 2 2 2 2 1 2 2 3 1 1 1 1 1 1 1 1 0 0 1 1 1 1 2 2 1 1
4 4 4 3 3 3 3 2 2 2 2 1 1 2 2 2 1 1 1 1 1 1 1 1 1 1 1 1 1 2 4 2 1
4 4 3 3 3 3 2 2 2 1 1 1 2 2 1 1 1 1 1 1 1 1 1 1 1 1 1 1 1 4 5 3 0
3 3 2 2 2 2 2 1 1 1 1 2 2 2 2 2 1 1 1 2 1 1 1 1 1 1 1 1 1 6 7 4 1
3 2 2 2 1 1 1 1 0 1 2 2 2 2 1 1 1 1 1 1 1 1 1 1 1 1 1 2 1 6 7 5 1
2 2 2 1 1 1 0 -0 0 1 2 2 1 1 1 1 1 1 1 1 1 1 1 1 1 1 1 1 1 1 8 7 1
2 2 2 1 2 2 1 0 -0 1 2 1 1 1 1 1 1 1 1 1 1 1 1 2 2 2 2 1 1 4 8 7 7
2 2 2 1 2 2 0 0 -0 2 1 1 1 1 1 1 1 1 1 1 2 2 1 2 2 2 2 2 2 4 7 7 7
2 2 2 1 2 2 2 0 1 1 1 1 1 2 2 1 2 2 2 3 4 3 2 2 2 3 3 3 4 5 5 6 6
2 2 2 1 2 2 2 1 1 1 1 1 2 2 1 2 2 2 4 8 10 7 5 8 4 2 2 4 4 5 8 7 6
2 2 2 2 2 2 2 1 1 1 1 1 2 2 2 2 2 2 3 4 7 12 12 13 13 11 7 11 11 13 14 14 13
2 2 2 2 2 2 2 2 1 1 1 1 1 2 2 2 3 3 4 4 5 6 9 11 13 13 12 11 13 13 14 14 13